North Platte, NE

7:33 AM CST on February 13, 2016 (GMT -0600)
North Platte Regional-Bird

Weather History for KLBF - March, 2013

Change the Weather History Date:

Tuesday, March 26, 2013

  Actual Average Record
Temperature  
Mean Temperature 28 °F 41 °F  
Max Temperature 49 °F 56 °F 86 °F (2012)
Min Temperature 7 °F 27 °F -5 °F (1965)
Degree Days  
Heating Degree Days 37 24  
Month to date heating degree days 784 721  
Since 1 July heating degree days 5744 5749  
Cooling Degree Days 0 0  
Month to date cooling degree days 0 0  
Year to date cooling degree days 0 0  
Moisture  
Dew Point 13 °F    
Average Humidity 55    
Maximum Humidity 88    
Minimum Humidity 21    
Precipitation  
Precipitation 0.00 in 0.04 in 1.10 in (1949)
Month to date precipitation 0.21 0.82  
Year to date precipitation 1.49 1.66  
Snow  
Snow 0.00 in 0.20 in 5.00 in (1944)
Month to date snowfall 2.7 3.7  
Since 1 July snowfall 22.6 24.6  
Snow Depth 0.00 in    
Sea Level Pressure  
Sea Level Pressure 30.25 in    
Wind  
Wind Speed 8 mph (SSE)    
Max Wind Speed 23 mph    
Max Gust Speed 29 mph    
Visibility 10 miles    
Events      
T = Trace of Precipitation, MM = Missing Value Source: NWS Daily Summary

Daily Weather History Graph

Daily Weather History Graph

Search for Another Location

Airport or City:

Trip Planner

Search our weather history database for the weather conditions in past years. The results will help you decide how hot, cold, wet, or windy it might be!

Date:

Astronomy

Mar. 26, 2013 Rise Set
Actual Time 7:35 AM CDT 8:01 PM CDT
Civil Twilight 7:07 AM CDT 8:29 PM CDT
Nautical Twilight 6:35 AM CDT 9:01 PM CDT
Astronomical Twilight 6:02 AM CDT 9:35 PM CDT
Moon 7:40 PM CDT (3/26) 6:53 AM CDT (3/26)
Length of Visible Light 13h 21m
Length of Day
12h 26m
Waxing Gibbous, 99% of the Moon is Illuminated
Mar 26
Waxing Gibbous
Mar 27
Full
Apr 2
Last Quarter
Apr 10
New
Apr 18
First Quarter

Hourly Weather History & Observations

Time (CDT) Temp. Windchill Dew Point Humidity Pressure Visibility Wind Dir Wind Speed Gust Speed Precip Events Conditions
12:53 AM 12.0 °F 4.1 °F 8.1 °F 84% 30.40 in 10.0 mi East 4.6 mph - N/A   Clear
1:53 AM 12.0 °F 5.9 °F 8.1 °F 84% 30.40 in 10.0 mi SE 3.5 mph - N/A   Clear
2:53 AM 15.1 °F 7.7 °F 9.0 °F 77% 30.38 in 10.0 mi South 4.6 mph - N/A   Clear
3:53 AM 9.0 °F - 5.0 °F 84% 30.37 in 10.0 mi Calm Calm - N/A   Clear
4:53 AM 9.0 °F 2.4 °F 5.0 °F 84% 30.35 in 10.0 mi ESE 3.5 mph - N/A   Clear
5:53 AM 9.0 °F - 5.0 °F 84% 30.34 in 10.0 mi Calm Calm - N/A   Clear
6:53 AM 9.0 °F 0.6 °F 3.9 °F 80% 30.34 in 10.0 mi ESE 4.6 mph - N/A   Clear
7:53 AM 9.0 °F 2.4 °F 5.0 °F 84% 30.35 in 10.0 mi East 3.5 mph - N/A   Clear
8:53 AM 16.0 °F 10.4 °F 12.0 °F 84% 30.33 in 10.0 mi ESE 3.5 mph - N/A   Clear
9:53 AM 23.0 °F - 15.1 °F 72% 30.32 in 10.0 mi Calm Calm - N/A   Clear
10:53 AM 33.8 °F 23.9 °F 15.8 °F 48% 30.19 in 10.0 mi South 15.0 mph - N/A   Clear
11:53 AM 39.9 °F 31.8 °F 16.0 °F 38% 30.26 in 10.0 mi South 15.0 mph 20.7 mph N/A   Clear
12:53 PM 42.1 °F 34.2 °F 10.0 °F 27% 30.22 in 10.0 mi South 16.1 mph 24.2 mph N/A   Clear
1:53 PM 46.0 °F 40.2 °F 9.0 °F 22% 30.19 in 10.0 mi South 12.7 mph 23.0 mph N/A   Clear
2:53 PM 46.9 °F - 12.9 °F 25% 30.16 in 10.0 mi South 16.1 mph 26.5 mph N/A   Clear
3:53 PM 48.9 °F - 16.0 °F 27% 30.15 in 10.0 mi South 13.8 mph - N/A   Clear
4:53 PM 46.9 °F - 19.0 °F 33% 30.13 in 10.0 mi SSW 20.7 mph 27.6 mph N/A   Clear
5:53 PM 46.0 °F 39.3 °F 21.0 °F 37% 30.12 in 10.0 mi South 16.1 mph 24.2 mph N/A   Clear
6:53 PM 46.0 °F 40.2 °F 21.0 °F 37% 30.12 in 10.0 mi South 12.7 mph - N/A   Clear
7:53 PM 41.0 °F 38.0 °F 21.0 °F 45% 30.14 in 10.0 mi SSE 4.6 mph - N/A   Clear
8:53 PM 39.9 °F 34.5 °F 21.9 °F 49% 30.14 in 10.0 mi SE 8.1 mph - N/A   Clear
9:53 PM 39.0 °F 33.4 °F 21.9 °F 50% 30.14 in 10.0 mi SE 8.1 mph - N/A   Clear
10:53 PM 37.0 °F 30.4 °F 21.9 °F 54% 30.13 in 10.0 mi SE 9.2 mph - N/A   Overcast
11:53 PM 35.1 °F 29.3 °F 21.9 °F 59% 30.12 in 10.0 mi ESE 6.9 mph - N/A   Scattered Clouds